KAC101 OKKK-EGLL

Flight info

Callsign KAC101
Flight time N/A
Altitude 34000
Route RALKA DCT TASMI L602 ALPET L718 DEBNI DCT SEVKU/N0447F360 L718 KABAN UL718 ULSAB UG8 GEM UT32 BUK UL602 MAKOL DCT MOPUG/N0436F380 DCT ARSIN DCT TAGAS DCT DEXIT DCT MAMOR DCT PETIX DCT BOMBI DCT ADKUV DCT SOGRI DCT DENUT L608 LOGAN
Aircraft A320/M-SDE3FGHIJ1RWY/LB1

Departure

Time 2026-05-04 17:05
Airport Kuwait International Airport (OKKK)

Arrival

Time N/A
Airport London Heathrow Airport (EGLL)
Time Latitude Longitude Altitude Speed Heading
2026-05-04 16:13 29.25153 47.95973 168 ft 0 kts 66°
2026-05-04 16:35 29.25041 47.95999 167 ft 0 kts 63°
2026-05-04 16:49 29.25031 47.95956 166 ft 4 kts 100°
2026-05-04 16:49 29.25061 47.95912 166 ft 2 kts 154°
2026-05-04 16:50 29.25062 47.95911 166 ft 1 kts 155°
2026-05-04 16:57 29.24970 47.95960 166 ft 7 kts 155°
2026-05-04 16:58 29.24929 47.95976 165 ft 4 kts 185°
2026-05-04 16:58 29.24910 47.95959 165 ft 4 kts 218°
2026-05-04 16:59 29.24788 47.96010 165 ft 11 kts 155°
2026-05-04 17:00 29.24475 47.96176 164 ft 14 kts 155°
2026-05-04 17:00 29.24224 47.96310 164 ft 0 kts 155°
2026-05-04 17:01 29.24223 47.96310 164 ft 1 kts 155°
2026-05-04 17:01 29.24201 47.96322 164 ft 4 kts 156°
2026-05-04 17:02 29.24150 47.96271 162 ft 15 kts 244°
2026-05-04 17:02 29.23986 47.96197 160 ft 14 kts 170°
2026-05-04 17:03 29.23929 47.96216 159 ft 0 kts 156°
2026-05-04 17:04 29.23777 47.96298 159 ft 57 kts 154°
2026-05-04 17:04 29.22664 47.96889 163 ft 149 kts 155°
2026-05-04 17:05 29.20100 47.98269 1163 ft 176 kts 145°
2026-05-04 17:05 29.18746 48.00767 1874 ft 207 kts 112°
2026-05-04 17:06 29.17459 48.04123 2279 ft 251 kts 114°
2026-05-04 17:06 29.16741 48.05983 2796 ft 259 kts 111°
2026-05-04 17:07 29.16919 48.10055 3957 ft 272 kts 60°
2026-05-04 17:07 29.17695 48.11181 4346 ft 276 kts 41°
2026-05-04 17:07 29.19277 48.12454 4950 ft 280 kts 32°
2026-05-04 17:07 29.21489 48.14082 5798 ft 285 kts 31°
2026-05-04 17:08 29.23169 48.15312 6415 ft 288 kts 31°
2026-05-04 17:08 29.26586 48.17828 7635 ft 296 kts 31°
2026-05-04 17:08 29.28325 48.19114 8244 ft 300 kts 31°
2026-05-04 17:09 29.30088 48.20422 8864 ft 304 kts 31°
2026-05-04 17:09 29.31264 48.21298 9276 ft 306 kts 31°
2026-05-04 17:09 29.33673 48.23093 10080 ft 312 kts 30°
2026-05-04 17:10 29.36865 48.25464 10361 ft 346 kts 30°
2026-05-04 17:10 29.44511 48.28554 11832 ft 357 kts 352°
2026-05-04 17:11 29.46168 48.28291 12213 ft 355 kts 342°
2026-05-04 17:11 29.49162 48.26914 12979 ft 349 kts 325°
2026-05-04 17:11 29.52681 48.24591 13938 ft 353 kts 324°
2026-05-04 17:12 29.55535 48.22707 14671 ft 355 kts 325°
2026-05-04 17:12 29.59859 48.19856 15749 ft 357 kts 323°
2026-05-04 17:13 29.65482 48.15933 17163 ft 365 kts 326°
2026-05-04 17:14 29.72234 48.11688 18641 ft 372 kts 326°
2026-05-04 17:14 29.74494 48.10221 19086 ft 374 kts 325°
2026-05-04 17:14 29.79037 48.07217 19941 ft 379 kts 324°
2026-05-04 17:15 29.81327 48.05692 20353 ft 382 kts 324°
2026-05-04 17:15 29.85955 48.02612 21180 ft 387 kts 324°
2026-05-04 17:16 29.90639 47.99497 21775 ft 390 kts 324°
2026-05-04 17:16 29.97678 47.94834 21781 ft 389 kts 324°
2026-05-04 17:17 30.00016 47.93282 21778 ft 388 kts 323°
2026-05-04 17:17 30.05764 47.87080 21789 ft 376 kts 306°
2026-05-04 17:18 30.07482 47.84780 22092 ft 379 kts 306°
2026-05-04 17:18 30.10938 47.80185 22936 ft 383 kts 306°
2026-05-04 17:19 30.14436 47.75529 23702 ft 385 kts 306°
2026-05-04 17:19 30.17961 47.70821 24365 ft 389 kts 305°
2026-05-04 17:20 30.21511 47.66062 25007 ft 392 kts 305°
2026-05-04 17:20 30.25089 47.61266 25628 ft 395 kts 305°
2026-05-04 17:20 30.26891 47.58855 25948 ft 397 kts 305°
2026-05-04 17:21 30.30508 47.53999 26539 ft 400 kts 304°
2026-05-04 17:21 30.34151 47.49100 27133 ft 403 kts 304°
2026-05-04 17:22 30.35982 47.46631 27428 ft 405 kts 304°
2026-05-04 17:22 30.37821 47.44151 27714 ft 407 kts 304°
2026-05-04 17:23 30.43387 47.36653 28554 ft 411 kts 304°
2026-05-04 17:23 30.45256 47.34134 28823 ft 413 kts 304°
2026-05-04 17:23 30.48994 47.29098 29325 ft 416 kts 304°
2026-05-04 17:24 30.50882 47.26546 29570 ft 418 kts 304°
2026-05-04 17:24 30.56569 47.18841 30318 ft 419 kts 303°
2026-05-04 17:25 30.58462 47.16277 30615 ft 418 kts 303°
2026-05-04 17:25 30.62233 47.11167 31206 ft 416 kts 303°
2026-05-04 17:26 30.65977 47.06076 31778 ft 413 kts 302°
2026-05-04 17:26 30.71547 46.98497 32661 ft 410 kts 302°
2026-05-04 17:27 30.75241 46.93474 33257 ft 408 kts 302°
2026-05-04 17:27 30.78911 46.88462 33736 ft 406 kts 302°
2026-05-04 17:28 30.82567 46.83458 33769 ft 405 kts 302°
2026-05-04 17:29 30.93518 46.68478 33771 ft 406 kts 302°
2026-05-04 17:31 31.02651 46.55918 33786 ft 408 kts 302°
2026-05-04 17:32 31.11820 46.43277 33798 ft 408 kts 302°
2026-05-04 17:33 31.19153 46.33137 33794 ft 409 kts 302°
2026-05-04 17:34 31.27716 46.24001 33800 ft 419 kts 310°
2026-05-04 17:35 31.38771 46.12900 33805 ft 419 kts 310°
2026-05-04 17:36 31.43188 46.08454 33810 ft 419 kts 310°
2026-05-04 17:36 31.47598 46.04006 33810 ft 419 kts 310°
2026-05-04 17:37 31.52004 45.99545 33810 ft 418 kts 310°
2026-05-04 17:37 31.56413 45.95080 33810 ft 419 kts 310°
2026-05-04 17:38 31.60835 45.90607 33819 ft 419 kts 310°
2026-05-04 17:38 31.65219 45.86162 33819 ft 420 kts 310°
2026-05-04 17:39 31.72008 45.79253 31930 ft 433 kts 311°
2026-05-04 17:39 31.76528 45.74662 31933 ft 427 kts 311°
2026-05-04 17:40 31.81007 45.70092 31934 ft 427 kts 311°
2026-05-04 17:40 31.85494 45.65509 31932 ft 428 kts 311°
2026-05-04 17:41 31.89990 45.60916 31932 ft 428 kts 311°
2026-05-04 17:41 31.94483 45.56320 31935 ft 428 kts 311°
2026-05-04 17:42 31.98972 45.51725 31945 ft 428 kts 311°
2026-05-04 17:42 32.03462 45.47114 31944 ft 428 kts 311°
2026-05-04 17:43 32.07948 45.42500 31944 ft 428 kts 311°
2026-05-04 17:43 32.12432 45.37884 31947 ft 428 kts 310°
2026-05-04 17:44 32.16925 45.33252 31945 ft 429 kts 310°
2026-05-04 17:44 32.21399 45.28646 31949 ft 429 kts 310°
2026-05-04 17:45 32.25892 45.24014 31955 ft 429 kts 310°
2026-05-04 17:45 32.30381 45.19365 31958 ft 429 kts 310°
2026-05-04 17:46 32.34873 45.14706 31978 ft 430 kts 310°
2026-05-04 17:46 32.39362 45.10053 31958 ft 429 kts 310°
2026-05-04 17:47 32.43853 45.05394 31958 ft 429 kts 310°
2026-05-04 17:47 32.48337 45.00732 31972 ft 429 kts 310°
2026-05-04 17:48 32.52824 44.96061 31965 ft 428 kts 310°
2026-05-04 17:48 32.56532 44.92178 31969 ft 428 kts 310°
2026-05-04 17:49 32.61749 44.86720 31969 ft 428 kts 310°
2026-05-04 17:49 32.66211 44.82057 31972 ft 428 kts 310°
2026-05-04 17:50 32.70675 44.77384 31972 ft 428 kts 310°
2026-05-04 17:50 32.75135 44.72701 31972 ft 428 kts 310°
2026-05-04 17:51 32.78840 44.68803 31974 ft 428 kts 310°
2026-05-04 17:51 32.84021 44.63358 31980 ft 427 kts 309°
2026-05-04 17:52 32.88472 44.58670 31979 ft 427 kts 309°
2026-05-04 17:52 32.92903 44.53995 32256 ft 428 kts 309°
2026-05-04 17:53 32.95125 44.51649 32566 ft 427 kts 309°
2026-05-04 17:53 32.97344 44.49307 32863 ft 426 kts 309°
2026-05-04 17:53 32.99558 44.46969 33158 ft 425 kts 309°
2026-05-04 17:53 33.01767 44.44638 33450 ft 424 kts 309°
2026-05-04 17:54 33.03974 44.42308 33746 ft 423 kts 309°
2026-05-04 17:54 33.06172 44.39979 33875 ft 423 kts 308°
2026-05-04 17:54 33.09108 44.36855 33891 ft 422 kts 308°
2026-05-04 17:56 33.26078 44.25454 33893 ft 458 kts 335°
2026-05-04 17:56 33.32233 44.23438 33893 ft 458 kts 335°
2026-05-04 17:57 33.38373 44.21408 33893 ft 458 kts 334°
2026-05-04 17:57 33.44517 44.19365 33898 ft 459 kts 334°
2026-05-04 17:58 33.50680 44.17325 33888 ft 459 kts 334°
2026-05-04 17:58 33.56799 44.15301 33900 ft 459 kts 334°
2026-05-04 17:59 33.62957 44.13257 33907 ft 459 kts 334°
2026-05-04 18:00 33.72187 44.10186 33900 ft 459 kts 334°
2026-05-04 18:00 33.78349 44.08133 33902 ft 459 kts 334°
2026-05-04 18:01 33.84546 44.06071 33923 ft 459 kts 334°
2026-05-04 18:01 33.90676 44.04028 33916 ft 460 kts 334°
2026-05-04 18:02 33.99932 44.00921 33909 ft 462 kts 334°
2026-05-04 18:02 34.06135 43.98843 33912 ft 463 kts 334°
2026-05-04 18:03 34.12348 43.96759 33911 ft 463 kts 334°
2026-05-04 18:03 34.18559 43.94672 33912 ft 464 kts 334°
2026-05-04 18:04 34.24779 43.92583 33912 ft 464 kts 334°
2026-05-04 18:05 34.34123 43.89420 33910 ft 466 kts 334°
2026-05-04 18:05 34.40383 43.87295 33918 ft 468 kts 334°
2026-05-04 18:06 34.49785 43.84121 33920 ft 468 kts 334°
2026-05-04 18:06 34.56058 43.81996 33912 ft 468 kts 334°
2026-05-04 18:07 34.62329 43.79872 33917 ft 468 kts 334°
2026-05-04 18:07 34.68616 43.77738 33918 ft 469 kts 334°
2026-05-04 18:08 34.74887 43.75594 33933 ft 468 kts 333°
2026-05-04 18:08 34.81152 43.73445 33920 ft 468 kts 334°
2026-05-04 18:09 34.93681 43.69156 33921 ft 468 kts 334°
2026-05-04 18:10 34.99953 43.67006 33913 ft 469 kts 333°
2026-05-04 18:10 35.06204 43.64860 33922 ft 469 kts 333°
2026-05-04 18:11 35.12486 43.62692 33957 ft 470 kts 333°
2026-05-04 18:11 35.18780 43.60529 33937 ft 471 kts 333°
2026-05-04 18:12 35.25089 43.58351 33917 ft 471 kts 333°
2026-05-04 18:12 35.31401 43.56157 33921 ft 471 kts 333°
2026-05-04 18:13 35.37712 43.53965 33921 ft 471 kts 333°
2026-05-04 18:14 35.47201 43.50681 33919 ft 474 kts 333°
2026-05-04 18:14 35.53554 43.48480 33918 ft 474 kts 333°
2026-05-04 18:15 35.66242 43.44046 33914 ft 475 kts 332°
2026-05-04 18:16 35.72612 43.41807 33910 ft 476 kts 332°
2026-05-04 18:16 35.78986 43.39579 33909 ft 476 kts 332°
2026-05-04 18:17 35.88498 43.36236 33909 ft 476 kts 332°
2026-05-04 18:18 35.98060 43.32880 33909 ft 476 kts 332°
2026-05-04 18:18 36.04435 43.30625 33925 ft 476 kts 332°
2026-05-04 18:19 36.13665 43.26592 33894 ft 461 kts 323°
2026-05-04 18:19 36.19533 43.23366 33913 ft 462 kts 323°
2026-05-04 18:20 36.25401 43.20129 33906 ft 462 kts 323°
2026-05-04 18:20 36.31276 43.16885 33918 ft 463 kts 323°
2026-05-04 18:21 36.36169 43.14183 33918 ft 463 kts 323°
2026-05-04 18:21 36.43060 43.10381 33920 ft 463 kts 323°
2026-05-04 18:22 36.48907 43.07150 33920 ft 463 kts 323°
2026-05-04 18:22 36.53837 43.04408 33922 ft 463 kts 323°
2026-05-04 18:23 36.59723 43.01128 33918 ft 464 kts 323°
2026-05-04 18:23 36.65621 42.97847 33928 ft 464 kts 323°
2026-05-04 18:24 36.71519 42.94560 33928 ft 464 kts 323°
2026-05-04 18:24 36.77420 42.91269 33918 ft 465 kts 323°
2026-05-04 18:25 36.83344 42.87994 33936 ft 466 kts 324°
2026-05-04 18:25 36.89246 42.84753 33961 ft 467 kts 324°
2026-05-04 18:26 36.95236 42.81451 33944 ft 468 kts 324°
2026-05-04 18:26 37.01144 42.78179 33936 ft 468 kts 324°
2026-05-04 18:27 37.07094 42.74873 33942 ft 468 kts 324°
2026-05-04 18:27 37.13062 42.71561 33949 ft 469 kts 324°
2026-05-04 18:28 37.19022 42.68247 33950 ft 469 kts 324°
2026-05-04 18:28 37.21924 42.66447 33947 ft 458 kts 317°
2026-05-04 18:28 37.24501 42.64215 33952 ft 444 kts 308°
2026-05-04 18:29 37.26734 42.61625 33953 ft 431 kts 301°
2026-05-04 18:29 37.28626 42.58759 33952 ft 422 kts 295°
2026-05-04 18:29 37.32164 42.52876 33985 ft 422 kts 295°
2026-05-04 18:30 37.37486 42.43988 33943 ft 425 kts 296°
2026-05-04 18:31 37.41039 42.38041 33938 ft 425 kts 296°
2026-05-04 18:31 37.44569 42.32132 33953 ft 425 kts 296°
2026-05-04 18:32 37.48120 42.26181 33949 ft 425 kts 296°
2026-05-04 18:32 37.51655 42.20224 33949 ft 424 kts 296°
2026-05-04 18:33 37.55186 42.14263 33969 ft 425 kts 296°
2026-05-04 18:33 37.58731 42.08269 33949 ft 427 kts 296°
2026-05-04 18:34 37.62282 42.02261 33950 ft 427 kts 296°
2026-05-04 18:34 37.65835 41.96256 33982 ft 428 kts 296°
2026-05-04 18:35 37.69403 41.90207 33955 ft 430 kts 297°
2026-05-04 18:35 37.72951 41.84168 34410 ft 424 kts 297°
2026-05-04 18:35 37.74718 41.81157 34171 ft 429 kts 297°
2026-05-04 18:36 37.76504 41.78083 34597 ft 412 kts 297°
2026-05-04 18:36 37.78210 41.75198 35243 ft 409 kts 297°
2026-05-04 18:36 37.79699 41.72673 35590 ft 404 kts 297°
2026-05-04 18:37 37.81778 41.69134 35864 ft 404 kts 297°
2026-05-04 18:37 37.84399 41.64640 35741 ft 414 kts 297°
2026-05-04 18:39 37.86913 41.60441 35946 ft 414 kts 297°
2026-05-04 18:40 37.90356 41.54474 35951 ft 425 kts 297°
2026-05-04 18:40 37.92329 41.51022 35955 ft 431 kts 298°
2026-05-04 18:42 37.94150 41.47941 35952 ft 435 kts 298°
2026-05-04 18:42 37.96320 41.44226 35956 ft 436 kts 298°
2026-05-04 18:43 37.99902 41.38014 35968 ft 438 kts 298°
2026-05-04 18:43 38.03498 41.31774 35954 ft 439 kts 298°
2026-05-04 18:44 38.06209 41.27087 35953 ft 440 kts 298°
2026-05-04 18:44 38.09709 41.21026 35951 ft 440 kts 298°
2026-05-04 18:45 38.13284 41.14769 35948 ft 439 kts 296°
2026-05-04 18:45 38.15884 41.07915 35950 ft 428 kts 284°
2026-05-04 18:46 38.17535 41.02612 35951 ft 428 kts 285°
2026-05-04 18:46 38.19038 40.97799 35947 ft 428 kts 285°
2026-05-04 18:47 38.21238 40.90745 35947 ft 430 kts 285°
2026-05-04 18:47 38.23431 40.83669 35942 ft 430 kts 285°
2026-05-04 18:48 38.25596 40.76579 35942 ft 430 kts 284°
2026-05-04 18:48 38.27726 40.69471 35960 ft 431 kts 285°
2026-05-04 18:49 38.29858 40.62321 35943 ft 433 kts 285°
2026-05-04 18:49 38.31464 40.56947 35941 ft 433 kts 285°
2026-05-04 18:50 38.33604 40.49784 35938 ft 433 kts 285°
2026-05-04 18:50 38.35727 40.42636 35948 ft 433 kts 285°
2026-05-04 18:51 38.37841 40.35510 35931 ft 434 kts 285°
2026-05-04 18:51 38.39973 40.28308 35933 ft 434 kts 285°
2026-05-04 18:52 38.42097 40.21116 35934 ft 434 kts 285°
2026-05-04 18:52 38.44214 40.13914 35927 ft 436 kts 285°
2026-05-04 18:53 38.46338 40.06664 35927 ft 437 kts 285°
2026-05-04 18:53 38.48461 39.99437 35928 ft 436 kts 285°
2026-05-04 18:54 38.50579 39.92203 35946 ft 436 kts 285°
2026-05-04 18:54 38.52697 39.84923 35925 ft 438 kts 285°
2026-05-04 18:55 38.54806 39.77638 35929 ft 438 kts 285°
2026-05-04 18:55 38.57967 39.66698 35924 ft 438 kts 285°
2026-05-04 18:56 38.60075 39.59408 35924 ft 439 kts 286°
2026-05-04 18:56 38.62174 39.52111 35926 ft 439 kts 285°
2026-05-04 18:57 38.64291 39.44788 35923 ft 439 kts 286°
2026-05-04 18:57 38.66438 39.37460 35900 ft 440 kts 286°
2026-05-04 18:58 38.68578 39.30154 35921 ft 440 kts 286°
2026-05-04 18:58 38.70663 39.22880 35917 ft 437 kts 282°
2026-05-04 18:59 38.71899 39.15327 35915 ft 433 kts 276°
2026-05-04 18:59 38.73020 39.07746 35915 ft 434 kts 277°
2026-05-04 19:00 38.74146 39.00158 35902 ft 434 kts 277°
2026-05-04 19:00 38.75270 38.92562 35894 ft 434 kts 277°
2026-05-04 19:01 38.76396 38.84966 35892 ft 434 kts 277°
2026-05-04 19:01 38.77549 38.77365 35907 ft 435 kts 277°